This is the latest recevied weather packets stored in our database for station/object N4WFF. If no packets are shown the sender has not sent any weather packets the latest 10 day(s).
| Time | Temp. | Humidity | Pressure | Rain* | Wind** | Luminosity | Snow |
|---|---|---|---|---|---|---|---|
| 1777509656 | 21.11° C | 93% | 1014.2 hPa | 9.14 mm | - | 0 W/m² | - |
| 1777509355 | 21.11° C | 93% | 1014 hPa | 5.33 mm | - | 0 W/m² | - |
| 1777509056 | 21.67° C | 93% | 1014 hPa | 3.05 mm | - | 0 W/m² | - |
| 1777508755 | 21.67° C | 93% | 1013.7 hPa | 1.27 mm | - | 0 W/m² | - |
| 1777508456 | 21.67° C | 92% | 1013.5 hPa | 1.78 mm | - | 0 W/m² | - |
| 1777508155 | 22.22° C | 92% | 1013.4 hPa | 6.6 mm | - | 0 W/m² | - |
| 1777507856 | 22.22° C | 93% | 1013.4 hPa | 10.41 mm | - | 0 W/m² | - |
| 1777507555 | 22.22° C | 93% | 1013.4 hPa | 7.11 mm | - | 0 W/m² | - |
| 1777507255 | 22.78° C | 94% | 1013.5 hPa | 8.89 mm | - | 1 W/m² | - |
| 1777506955 | 22.78° C | 94% | 1013.2 hPa | 9.65 mm | - | 2 W/m² | - |
| 1777506657 | 22.78° C | 94% | 1013 hPa | 11.18 mm | - | 2 W/m² | - |
| 1777506355 | 22.78° C | 94% | 1012.9 hPa | 2.29 mm | - | 2 W/m² | - |
| 1777506055 | 22.78° C | 93% | 1012.8 hPa | 1.78 mm | - | 2 W/m² | - |
| 1777505755 | 22.78° C | 93% | 1012.6 hPa | 2.03 mm | - | 5 W/m² | - |
| 1777505456 | 22.78° C | 93% | 1012.5 hPa | 1.78 mm | - | 5 W/m² | - |
| 1777505156 | 22.78° C | 93% | 1012.5 hPa | 4.32 mm | - | 3 W/m² | - |
| 1777504856 | 22.78° C | 92% | 1012.2 hPa | 1.27 mm | - | 6 W/m² | - |
| 1777504556 | 22.78° C | 91% | 1012.1 hPa | 2.54 mm | - | 6 W/m² | - |
| 1777504255 | 22.78° C | 90% | 1012.3 hPa | 0 mm | - | 4 W/m² | - |
| 1777503956 | 23.33° C | 89% | 1012.1 hPa | 0.25 mm | - | 3 W/m² | - |
| 1777503656 | 23.33° C | 88% | 1012 hPa | 2.79 mm | - | 3 W/m² | - |
| 1777503356 | 23.33° C | 86% | 1011.9 hPa | 0.51 mm | - | 6 W/m² | - |
| 1777503056 | 23.89° C | 84% | 1011.9 hPa | 0 mm | - | 7 W/m² | - |
| 1777502756 | 24.44° C | 85% | 1011.9 hPa | 0 mm | - | 5 W/m² | - |
| 1777502457 | 25° C | 84% | 1011.8 hPa | 0 mm | - | 4 W/m² | - |
* Rain latest hour (hover to see other rain measurements)
** Current wind speed in m/s (hover to see current wind gust speed)